Vertical_Velocity
2 0 -1 -1 -1 -1 -1 -1 1 1 -1 -2 -1 -1 -2 -2 -1 -1 -1 -2 -3 -1 -1 -2 -1 -2 -2 0 -1 -1 3 1 -0 1 -1 -1 -1 -1 2 -9 1 0 1 -0 1
-1 -1 0 0 -0 -0 -1 -2 -1 -1 -0 -1 -1 -1 -0 -0 0 0 -1 -0 -0 -1 -2 -2 -1 -1 -1 -1 -1 -1 1 -1 0 -1 0 -1 -2 3 -2 2 4 1 2 1 0
1 -3 -0 -0 1 -0 -1 -1 -1 -1 -1 -1 -1 -1 -1 -2 -1 -1 -1 -1 -2 -1 -2 -2 -2 -2 0 1 1 0 1 -1 1 0 -2 -5 1 2 0 5 2 1 -2 -5 -4
-0 -4 0 0 1 -1 -1 -1 -1 -0 0 -1 -0 -1 -2 -2 -2 -1 0 0 -0 -0 -1 1 1 -0 -0 -1 -1 -2 -1 -0 -1 -2 -1 -7 1 0 1 2 3 3 1 1 -1
0 -1 2 -0 0 -0 -0 -1 -1 0 1 -0 -2 -2 1 1 -0 0 1 1 1 0 0 -1 -1 0 0 1 0 -0 3 3 2 0 -2 1 -3 1 1 2 2 0 -1 -1 -3
-1 1 0 -1 -0 -1 -1 -0 1 1 -1 -2 -1 -1 -1 -2 -1 -1 -2 -0 0 -1 -2 -2 -2 -0 -1 -1 -1 1 2 1 -0 1 -1 -7 1 -2 -0 -0 -1 -2 -2 -0 0
-1 1 0 1 -1 -0 -1 -0 0 -0 -1 -1 0 -0 -0 -2 -1 -1 -1 -2 -2 -1 0 1 1 -1 -1 0 -2 -1 -1 -1 -2 -6 -1 1 -1 -2 -1 -1 -1 -1 0 0 1
-0 0 1 1 -0 0 1 -0 0 -1 -1 -1 0 -1 -2 0 -1 1 -0 -2 -2 -1 -0 1 1 1 2 -0 -1 0 -1 -1 0 -0 -3 -3 0 2 7 3 -0 -3 2 4 4
-1 -1 1 1 -1 -1 -0 -1 -0 -1 -2 -0 -2 -1 2 -0 -4 -4 -2 -2 -3 -2 -3 -4 -3 -3 -2 -2 -2 0 2 -0 -2 -3 -4 -2 3 9 4 -0 -2 -2 -1 -5 -6
-2 -0 0 1 -0 -0 -1 -1 -1 -0 -1 -2 -0 1 -1 -3 -2 -1 -2 -0 -2 -2 0 2 -0 2 5 0 -3 -2 -2 -2 -0 -3 -4 1 5 2 -1 -2 0 1 -1 -2 -1
-0 -1 -0 -1 -0 -1 -2 -0 -1 -1 -1 -1 -2 -1 -1 -1 -5 -1 -3 -3 -3 -4 -4 -3 -2 -5 -4 -4 -4 -3 -0 0 -0 -0 -4 -2 -4 -0 2 -0 -3 -4 -1 2 2
-2 0 0 0 -0 -0 -1 -0 -1 -0 -1 -1 1 -1 -1 -3 -1 -1 -4 -4 -1 -1 2 1 -1 -2 -3 1 -1 -4 -5 -4 -4 -1 -4 -2 -3 -6 -5 -1 3 2 3 2 2
-2 1 0 0 1 0 -1 -2 -1 0 -1 -1 -1 -2 -2 -2 -1 -2 -2 -3 -3 -1 -3 -2 -2 -2 1 -2 -3 1 -2 -2 5 2 -5 -6 -3 -8 -5 -3 -1 -1 1 8 14
-0 -1 -0 0 0 1 -1 -2 0 -0 -1 -2 -1 -1 -1 -2 -1 -1 -0 -1 -1 -3 -3 -3 -3 -2 1 2 -0 2 0 -1 -0 1 -5 4 -10 4 -7 -6 -2 -2 3 6 8
1 -1 -1 -0 0 -1 -1 0 0 -1 -1 -0 -0 -0 -1 -1 -2 -2 -2 -2 1 -0 0 -2 -1 -1 -3 -1 3 1 1 4 3 3 -1 -4 -13 -6 -8 -3 -0 0 1 2 4
-0 -1 -0 -0 0 -0 -0 -1 -1 -1 -1 -2 -2 -1 -2 -3 0 -1 -2 0 -2 -3 -1 -1 2 -4 -1 0 1 4 2 -3 -6 -1 -2 2 -5 -18 -4 -4 -3 -1 -1 -4 -2
-1 -2 -1 -0 -0 0 -0 -1 -1 -0 -1 -2 -2 -1 -2 -2 -3 -2 -3 -6 -3 1 -2 -3 -1 -1 -3 -9 -10 -7 0 2 -4 0 2 -3 -18 4 2 -4 -6 -4 -2 -3 -2
-2 -2 -2 1 -1 0 0 -2 -1 -2 -1 -2 -2 0 -1 -4 -2 -0 -1 -3 -2 -0 -1 1 5 4 1 3 1 -8 -6 -5 -13 -12 -7 10 -3 -5 3 1 -4 2 1 4 -1
-1 -3 0 -1 -1 -0 -0 -1 1 -2 -1 -2 -2 -2 -2 -2 -1 -2 -1 2 0 -3 -4 0 -1 -2 -5 -7 -3 -8 -3 -7 -12 -6 -13 -9 -9 -11 -2 2 -2 -6 0 3 -4
-2 -2 -0 -1 -1 1 -1 -0 -1 -1 -0 -2 -2 -3 -1 -0 -2 -2 -4 -2 1 -1 1 -3 -8 -6 -1 0 -0 -3 -2 -5 2 -14 -14 -4 -8 -4 5 12 11 9 12 7 11
-2 -2 -1 0 0 -1 -1 -0 0 -1 -1 -3 -2 -2 -2 -2 -4 -3 -0 -3 -1 -4 -1 2 1 -11 -10 -2 2 -2 -1 -6 -4 -1 -2 -17 -12 2 0 -2 -5 -10 -5 -6 -8
-2 -2 -0 -1 -1 -0 -1 0 -0 -1 -1 -3 -1 -1 -1 -0 -3 -4 -1 -1 -2 0 -2 -5 -1 -2 -3 -2 -1 -1 -8 -3 -8 -2 14 7 -3 1 -1 2 -8 5 3 8 6
-1 -1 -1 -1 -1 -1 -1 -0 -1 -1 -1 -2 -1 -1 -1 -2 -3 -2 -3 -1 -0 -2 -3 -4 -3 2 -8 -4 -1 -9 -3 -2 -3 0 12 0 8 -4 -2 6 14 -2 3 2 -1
-2 -2 -1 -2 -0 -1 -0 -0 -1 -1 -1 -2 -0 -0 -1 -2 -0 -3 -4 -1 -1 -1 -1 1 -0 -5 -2 -3 -1 1 -2 1 4 -0 1 3 -3 4 4 -3 -3 7 -3 -7 -9
-1 -0 -1 -1 0 -0 -1 -0 -1 -1 -1 -1 -1 -1 -2 -2 -0 -3 -4 -3 -5 -1 -4 -0 3 -1 -8 -4 -3 -1 -2 -0 -6 1 -2 2 -2 2 0 -0 -8 -11 -3 1 -4
-2 -1 -2 -1 -0 0 -1 -0 -0 -1 -0 -2 -0 0 -3 -0 -0 -1 -1 -2 -1 -1 -3 -3 -1 2 5 5 0 -2 -0 -5 -7 1 13 13 9 3 1 1 6 -1 -3 2 3
1 -1 -2 0 0 0 -1 -0 -1 0 -1 -1 -2 -1 -2 -0 -1 -2 -1 -1 -4 2 -1 -2 -2 -1 1 -4 -7 1 1 0 0 -13 -3 -8 -6 -6 -5 -4 -2 -5 -1 -6 -2
Height
5862 5862 5863 5863 5864 5864 5863 5862 5861 5860 5859 5858 5856 5856 5855 5853 5852 5851 5849 5848 5846 5845 5843 5842 5841 5841 5842 5842 5842 5842 5842 5842 5842 5841 5840 5839 5838 5838 5837 5834 5834 5835 5835 5833 5830
5863 5864 5865 5864 5864 5864 5863 5862 5862 5861 5860 5859 5858 5856 5855 5854 5853 5852 5850 5849 5848 5846 5845 5843 5842 5841 5841 5842 5841 5841 5841 5841 5840 5838 5837 5835 5834 5836 5834 5835 5833 5831 5829 5827 5824
5865 5865 5865 5864 5864 5864 5864 5863 5863 5862 5861 5860 5859 5857 5856 5855 5854 5853 5851 5850 5849 5848 5846 5845 5843 5842 5842 5842 5841 5840 5840 5839 5839 5836 5834 5833 5834 5834 5833 5834 5831 5827 5824 5821 5818
5864 5865 5865 5865 5865 5865 5865 5864 5864 5863 5863 5861 5860 5859 5858 5856 5856 5853 5851 5849 5848 5846 5845 5845 5844 5844 5843 5842 5841 5840 5840 5839 5837 5835 5834 5830 5833 5832 5832 5830 5828 5826 5823 5819 5815
5865 5865 5866 5866 5866 5865 5865 5865 5865 5864 5863 5862 5861 5860 5859 5857 5855 5852 5850 5848 5847 5845 5845 5844 5844 5844 5843 5842 5841 5840 5840 5838 5836 5834 5831 5830 5830 5830 5829 5826 5823 5821 5817 5814 5810
5865 5865 5866 5866 5866 5865 5865 5865 5865 5864 5864 5863 5861 5859 5858 5857 5854 5852 5850 5848 5846 5844 5844 5843 5843 5843 5841 5840 5840 5839 5838 5836 5834 5831 5828 5826 5826 5826 5823 5819 5816 5813 5810 5808 5804
5866 5867 5867 5867 5867 5867 5866 5865 5865 5865 5864 5863 5861 5859 5858 5857 5854 5851 5849 5846 5845 5843 5842 5841 5840 5840 5839 5838 5837 5836 5836 5834 5831 5829 5828 5827 5826 5822 5819 5816 5813 5810 5806 5802 5799
5868 5868 5869 5868 5868 5867 5867 5866 5866 5865 5864 5862 5861 5860 5858 5856 5853 5851 5848 5846 5844 5842 5841 5840 5839 5838 5838 5837 5836 5835 5834 5832 5831 5829 5827 5824 5822 5821 5818 5814 5809 5805 5801 5797 5793
5869 5869 5870 5869 5869 5868 5867 5867 5866 5865 5864 5863 5862 5860 5859 5856 5853 5851 5849 5846 5844 5843 5843 5841 5840 5839 5837 5836 5835 5834 5833 5831 5830 5827 5824 5822 5820 5818 5815 5811 5806 5802 5797 5791 5786
5870 5870 5870 5869 5869 5868 5868 5867 5867 5866 5865 5863 5862 5862 5858 5856 5854 5851 5850 5848 5844 5843 5843 5842 5840 5839 5839 5837 5836 5834 5832 5830 5828 5826 5823 5819 5815 5812 5807 5803 5798 5793 5787 5782 5777
5870 5870 5871 5871 5870 5870 5869 5868 5869 5868 5865 5864 5862 5859 5858 5856 5854 5852 5852 5851 5846 5844 5843 5842 5842 5840 5839 5838 5835 5833 5831 5828 5825 5822 5818 5815 5811 5805 5800 5795 5789 5784 5779 5773 5767
5870 5871 5871 5871 5871 5870 5870 5868 5867 5867 5866 5864 5862 5859 5857 5855 5854 5853 5851 5851 5850 5847 5846 5844 5842 5840 5837 5835 5833 5830 5827 5825 5821 5817 5812 5807 5803 5798 5794 5788 5784 5778 5771 5765 5760
5870 5871 5871 5871 5871 5871 5870 5869 5867 5866 5866 5864 5861 5858 5857 5855 5853 5853 5852 5850 5848 5846 5844 5842 5841 5838 5835 5832 5830 5827 5825 5822 5819 5814 5809 5804 5800 5794 5788 5782 5774 5768 5760 5752 5745
5869 5871 5872 5872 5873 5871 5871 5869 5867 5866 5864 5864 5861 5858 5856 5854 5854 5852 5851 5850 5848 5845 5843 5842 5840 5838 5837 5834 5831 5827 5823 5819 5813 5810 5805 5800 5795 5787 5781 5774 5766 5757 5748 5739 5727
5868 5870 5871 5871 5871 5871 5871 5869 5868 5866 5865 5864 5861 5858 5856 5855 5854 5852 5851 5849 5847 5844 5843 5841 5838 5836 5833 5830 5827 5823 5818 5815 5810 5806 5801 5795 5786 5777 5771 5763 5755 5745 5735 5724 5711
5867 5869 5870 5871 5870 5870 5869 5868 5867 5867 5864 5862 5860 5857 5856 5854 5853 5850 5849 5847 5847 5844 5841 5838 5836 5833 5829 5826 5822 5819 5816 5812 5806 5801 5795 5787 5778 5770 5761 5750 5740 5728 5718 5706 5692
5867 5868 5868 5869 5870 5869 5868 5868 5867 5864 5863 5862 5859 5857 5855 5853 5852 5850 5848 5846 5844 5843 5840 5837 5834 5830 5827 5823 5820 5817 5814 5807 5802 5795 5787 5779 5768 5759 5745 5732 5721 5710 5698 5685 5673
5864 5866 5867 5867 5868 5868 5867 5867 5865 5864 5861 5860 5858 5856 5854 5852 5851 5850 5848 5845 5842 5839 5837 5834 5831 5827 5823 5819 5815 5811 5806 5801 5793 5787 5780 5769 5757 5745 5731 5719 5705 5693 5678 5668 5655
5862 5864 5865 5866 5866 5866 5867 5865 5864 5862 5860 5859 5856 5855 5854 5852 5851 5849 5845 5843 5840 5837 5836 5831 5828 5823 5819 5814 5811 5805 5799 5793 5785 5777 5766 5756 5745 5730 5716 5702 5689 5677 5665 5651 5635
5860 5862 5863 5864 5864 5864 5865 5863 5862 5860 5857 5857 5855 5853 5852 5849 5848 5846 5844 5841 5838 5835 5832 5829 5826 5821 5815 5811 5805 5800 5794 5785 5775 5761 5750 5741 5728 5714 5701 5689 5676 5663 5651 5635 5619
5856 5859 5861 5861 5861 5862 5861 5860 5859 5857 5856 5854 5852 5851 5850 5847 5845 5844 5841 5838 5834 5831 5828 5825 5822 5818 5812 5806 5800 5793 5784 5776 5765 5753 5737 5722 5713 5700 5686 5670 5656 5643 5630 5616 5605
5853 5857 5858 5859 5860 5859 5858 5857 5857 5854 5852 5851 5849 5848 5846 5844 5842 5841 5838 5835 5831 5827 5824 5821 5817 5812 5807 5800 5794 5786 5777 5767 5754 5747 5731 5713 5699 5681 5666 5651 5637 5626 5614 5603 5592
5849 5853 5855 5856 5856 5856 5855 5854 5854 5851 5849 5847 5845 5844 5843 5842 5841 5837 5834 5831 5827 5824 5819 5816 5813 5807 5800 5794 5786 5778 5768 5757 5745 5733 5720 5704 5686 5668 5653 5641 5630 5618 5608 5596 5584
5846 5849 5852 5853 5853 5852 5851 5851 5850 5848 5846 5844 5842 5840 5839 5838 5835 5834 5830 5827 5824 5820 5816 5811 5806 5802 5796 5787 5778 5769 5760 5748 5735 5721 5707 5692 5675 5662 5646 5632 5623 5613 5601 5588 5577
5842 5846 5848 5849 5849 5848 5848 5847 5846 5845 5842 5840 5838 5836 5836 5834 5832 5829 5826 5823 5820 5816 5811 5806 5801 5797 5789 5779 5770 5762 5750 5738 5725 5711 5696 5679 5660 5645 5632 5620 5610 5599 5589 5579 5570
5839 5843 5844 5845 5845 5845 5844 5844 5842 5841 5839 5836 5834 5832 5831 5830 5828 5826 5823 5820 5816 5812 5807 5801 5795 5790 5783 5772 5763 5752 5741 5727 5713 5701 5686 5668 5655 5637 5624 5612 5604 5593 5583 5574 5564
5835 5838 5841 5842 5841 5841 5841 5839 5838 5836 5835 5833 5830 5828 5827 5825 5822 5820 5818 5815 5811 5806 5801 5795 5789 5782 5775 5764 5754 5744 5731 5719 5704 5687 5672 5658 5643 5627 5615 5606 5599 5588 5577 5569 5559